Tracking 18850 objects as of 22-Nov-2017
HD Live streaming from Space Station
objects crossing your sky now

ANIK A3 (TELESAT-3)

Track ANIK A3 (TELESAT-3) now!
ANIK A3 (TELESAT-3) is classified as:


NORAD ID: 7790
Int'l Code: 1975-038A
Perigee: 35,828.4 km
Apogee: 35,876.7 km
Inclination: 13.7 °
Period: 1,439.1 minutes
Semi major axis: 42223 km
RCS: 3.6797 m2 (large)
Launch date: May 7, 1975
Source: Canada (CA)
Launch site: AIR FORCE EASTERN TEST RANGE (AFETR)
aabbcc
Your satellite tracking list
Your tracking list is empty




NASA's NSSDC Master Catalog

Two Line Element Set (TLE):
1  7790U 75038A   17324.88832912 -.00000236 +00000-0 +00000-0 0  9996
2  7790 013.6824 333.1252 0005719 291.1060 089.1912 01.00062389098645
Source of the keplerian elements: AFSPC